Year,Month,Day,Hour,Minute,Value (Times are PST for temperature in C)
2018,12,11,00,00,7.20
2018,12,11,00,01,7.20
2018,12,11,00,02,7.20
2018,12,11,00,03,7.20
2018,12,11,00,04,7.20
2018,12,11,00,05,7.20
2018,12,11,00,06,7.20
2018,12,11,00,07,7.20
2018,12,11,00,08,7.20
2018,12,11,00,09,7.20
2018,12,11,00,10,7.20
2018,12,11,00,11,7.30
2018,12,11,00,12,7.30
2018,12,11,00,13,7.30
2018,12,11,00,14,7.30
2018,12,11,00,15,7.30
2018,12,11,00,16,7.30
2018,12,11,00,17,7.30
2018,12,11,00,18,7.30
2018,12,11,00,19,7.30
2018,12,11,00,20,7.30
2018,12,11,00,21,7.30
2018,12,11,00,22,7.30
2018,12,11,00,23,7.30
2018,12,11,00,24,7.30
2018,12,11,00,25,7.30
2018,12,11,00,26,7.40
2018,12,11,00,27,7.40
2018,12,11,00,28,7.40
2018,12,11,00,29,7.40
2018,12,11,00,30,7.40
2018,12,11,00,31,7.40
2018,12,11,00,32,7.40
2018,12,11,00,33,7.40
2018,12,11,00,34,7.40
2018,12,11,00,35,7.40
2018,12,11,00,36,7.40
2018,12,11,00,37,7.40
2018,12,11,00,38,7.40
2018,12,11,00,39,7.40
2018,12,11,00,40,7.40
2018,12,11,00,41,7.40
2018,12,11,00,42,7.40
2018,12,11,00,43,7.40
2018,12,11,00,44,7.40
2018,12,11,00,45,7.40
2018,12,11,00,46,7.40
2018,12,11,00,47,7.40
2018,12,11,00,48,7.40
2018,12,11,00,49,7.40
2018,12,11,00,50,7.30
2018,12,11,00,51,7.30
2018,12,11,00,52,7.30
2018,12,11,00,53,7.30
2018,12,11,00,54,7.30
2018,12,11,00,55,7.30
2018,12,11,00,56,7.30
2018,12,11,00,57,7.30
2018,12,11,00,58,7.30
2018,12,11,00,59,7.30
2018,12,11,01,00,7.30
2018,12,11,01,01,7.30
2018,12,11,01,02,7.30
2018,12,11,01,03,7.30
2018,12,11,01,04,7.30
2018,12,11,01,05,7.30
2018,12,11,01,06,7.30
2018,12,11,01,07,7.30
2018,12,11,01,08,7.30
2018,12,11,01,09,7.30
2018,12,11,01,10,7.30
2018,12,11,01,11,7.30
2018,12,11,01,12,7.30
2018,12,11,01,13,7.30
2018,12,11,01,14,7.20
2018,12,11,01,15,7.20
2018,12,11,01,16,7.20
2018,12,11,01,17,7.20
2018,12,11,01,18,7.20
2018,12,11,01,19,7.20
2018,12,11,01,20,7.20
2018,12,11,01,21,7.20
2018,12,11,01,22,7.10
2018,12,11,01,23,7.10
2018,12,11,01,24,7.10
2018,12,11,01,25,7.10
2018,12,11,01,26,7.10
2018,12,11,01,27,7.10
2018,12,11,01,28,7.10
2018,12,11,01,29,7.10
2018,12,11,01,30,7.10
2018,12,11,01,31,7.10
2018,12,11,01,32,7.10
2018,12,11,01,33,7.10
2018,12,11,01,34,7.10
2018,12,11,01,35,7.10
2018,12,11,01,36,7.00
2018,12,11,01,37,7.00
2018,12,11,01,38,7.00
2018,12,11,01,39,7.00
2018,12,11,01,40,7.00
2018,12,11,01,41,7.00
2018,12,11,01,42,7.00
2018,12,11,01,43,7.00
2018,12,11,01,44,7.00
2018,12,11,01,45,6.90
2018,12,11,01,46,6.90
2018,12,11,01,47,6.90
2018,12,11,01,48,6.90
2018,12,11,01,49,6.90
2018,12,11,01,50,6.90
2018,12,11,01,51,6.90
2018,12,11,01,52,6.90
2018,12,11,01,53,6.90
2018,12,11,01,54,6.90
2018,12,11,01,55,6.80
2018,12,11,01,56,6.80
2018,12,11,01,57,6.80
2018,12,11,01,58,6.80
2018,12,11,01,59,6.80
2018,12,11,02,00,6.80
2018,12,11,02,01,6.80
2018,12,11,02,02,6.80
2018,12,11,02,03,6.80
2018,12,11,02,04,6.70
2018,12,11,02,05,6.70
2018,12,11,02,06,6.70
2018,12,11,02,07,6.70
2018,12,11,02,08,6.70
2018,12,11,02,09,6.70
2018,12,11,02,10,6.70
2018,12,11,02,11,6.60
2018,12,11,02,12,6.60
2018,12,11,02,13,6.60
2018,12,11,02,14,6.60
2018,12,11,02,15,6.60
2018,12,11,02,16,6.60
2018,12,11,02,17,6.60
2018,12,11,02,18,6.60
2018,12,11,02,19,6.60
2018,12,11,02,20,6.60
2018,12,11,02,21,6.60
2018,12,11,02,22,6.60
2018,12,11,02,23,6.60
2018,12,11,02,24,6.60
2018,12,11,02,25,6.60
2018,12,11,02,26,6.60
2018,12,11,02,27,6.60
2018,12,11,02,28,6.60
2018,12,11,02,29,6.60
2018,12,11,02,30,6.60
2018,12,11,02,31,6.60
2018,12,11,02,32,6.60
2018,12,11,02,33,6.60
2018,12,11,02,34,6.60
2018,12,11,02,35,6.60
2018,12,11,02,36,6.60
2018,12,11,02,37,6.50
2018,12,11,02,38,6.60
2018,12,11,02,39,6.50
2018,12,11,02,40,6.50
2018,12,11,02,41,6.60
2018,12,11,02,42,6.50
2018,12,11,02,43,6.60
2018,12,11,02,44,6.50
2018,12,11,02,45,6.50
2018,12,11,02,46,6.50
2018,12,11,02,47,6.50
2018,12,11,02,48,6.50
2018,12,11,02,49,6.50
2018,12,11,02,50,6.50
2018,12,11,02,51,6.50
2018,12,11,02,52,6.40
2018,12,11,02,53,6.40
2018,12,11,02,54,6.40
2018,12,11,02,55,6.40
2018,12,11,02,56,6.40
2018,12,11,02,57,6.40
2018,12,11,02,58,6.40
2018,12,11,02,59,6.40
2018,12,11,03,00,6.30
2018,12,11,03,01,6.30
2018,12,11,03,02,6.30
2018,12,11,03,03,6.30
2018,12,11,03,04,6.30
2018,12,11,03,05,6.30
2018,12,11,03,06,6.30
2018,12,11,03,07,6.30
2018,12,11,03,08,6.30
2018,12,11,03,09,6.30
2018,12,11,03,10,6.30
2018,12,11,03,11,6.30
2018,12,11,03,12,6.30
2018,12,11,03,13,6.30
2018,12,11,03,14,6.30
2018,12,11,03,15,6.30
2018,12,11,03,16,6.30
2018,12,11,03,17,6.30
2018,12,11,03,18,6.30
2018,12,11,03,19,6.30
2018,12,11,03,20,6.30
2018,12,11,03,21,6.30
2018,12,11,03,22,6.30
2018,12,11,03,23,6.30
2018,12,11,03,24,6.30
2018,12,11,03,25,6.30
2018,12,11,03,26,6.30
2018,12,11,03,27,6.30
2018,12,11,03,28,6.30
2018,12,11,03,29,6.30
2018,12,11,03,30,6.30
2018,12,11,03,31,6.30
2018,12,11,03,32,6.30
2018,12,11,03,33,6.30
2018,12,11,03,34,6.30
2018,12,11,03,35,6.30
2018,12,11,03,36,6.30
2018,12,11,03,37,6.30
2018,12,11,03,38,6.30
2018,12,11,03,39,6.30
2018,12,11,03,40,6.30
2018,12,11,03,41,6.30
2018,12,11,03,42,6.30
2018,12,11,03,43,6.30
2018,12,11,03,44,6.30
2018,12,11,03,45,6.30
2018,12,11,03,46,6.30
2018,12,11,03,47,6.30
2018,12,11,03,48,6.30
2018,12,11,03,49,6.30
2018,12,11,03,50,6.40
2018,12,11,03,51,6.40
2018,12,11,03,52,6.40
2018,12,11,03,53,6.40
2018,12,11,03,54,6.40
2018,12,11,03,55,6.40
2018,12,11,03,56,6.40
2018,12,11,03,57,6.40
2018,12,11,03,58,6.40
2018,12,11,03,59,6.40
2018,12,11,04,00,6.50
2018,12,11,04,01,6.50
2018,12,11,04,02,6.50
2018,12,11,04,03,6.60
2018,12,11,04,04,6.60
2018,12,11,04,05,6.60
2018,12,11,04,06,6.60
2018,12,11,04,07,6.60
2018,12,11,04,08,6.70
2018,12,11,04,09,6.70
2018,12,11,04,10,6.70
2018,12,11,04,11,6.80
2018,12,11,04,12,6.80
2018,12,11,04,13,6.80
2018,12,11,04,14,6.90
2018,12,11,04,15,6.90
2018,12,11,04,16,6.90
2018,12,11,04,17,7.00
2018,12,11,04,18,7.00
2018,12,11,04,19,7.10
2018,12,11,04,20,7.10
2018,12,11,04,21,7.10
2018,12,11,04,22,7.10
2018,12,11,04,23,7.20
2018,12,11,04,24,7.20
2018,12,11,04,25,7.30
2018,12,11,04,26,7.30
2018,12,11,04,27,7.40
2018,12,11,04,28,7.40
2018,12,11,04,29,7.40
2018,12,11,04,30,7.50
2018,12,11,04,31,7.50
2018,12,11,04,32,7.50
2018,12,11,04,33,7.50
2018,12,11,04,34,7.50
2018,12,11,04,35,7.50
2018,12,11,04,36,7.50
2018,12,11,04,37,7.50
2018,12,11,04,38,7.60
2018,12,11,04,39,7.60
2018,12,11,04,40,7.60
2018,12,11,04,41,7.60
2018,12,11,04,42,7.60
2018,12,11,04,43,7.60
2018,12,11,04,44,7.60
2018,12,11,04,45,7.60
2018,12,11,04,46,7.60
2018,12,11,04,47,7.60
2018,12,11,04,48,7.60
2018,12,11,04,49,7.60
2018,12,11,04,50,7.50
2018,12,11,04,51,7.50
2018,12,11,04,52,7.50
2018,12,11,04,53,7.50
2018,12,11,04,54,7.40
2018,12,11,04,55,7.40
2018,12,11,04,56,7.40
2018,12,11,04,57,7.40
2018,12,11,04,58,7.40
2018,12,11,04,59,7.40
2018,12,11,05,00,7.40
2018,12,11,05,01,7.40
2018,12,11,05,02,7.40
2018,12,11,05,03,7.40
2018,12,11,05,04,7.40
2018,12,11,05,05,7.40
2018,12,11,05,06,7.40
2018,12,11,05,07,7.40
2018,12,11,05,08,7.40
2018,12,11,05,09,7.40
2018,12,11,05,10,7.50
2018,12,11,05,11,7.50
2018,12,11,05,12,7.50
2018,12,11,05,13,7.50
2018,12,11,05,14,7.50
2018,12,11,05,15,7.50
2018,12,11,05,16,7.50
2018,12,11,05,17,7.50
2018,12,11,05,18,7.50
2018,12,11,05,19,7.40
2018,12,11,05,20,7.40
2018,12,11,05,21,7.40
2018,12,11,05,22,7.40
2018,12,11,05,23,7.40
2018,12,11,05,24,7.40
2018,12,11,05,25,7.40
2018,12,11,05,26,7.40
2018,12,11,05,27,7.30
2018,12,11,05,28,7.30
2018,12,11,05,29,7.30
2018,12,11,05,30,7.30
2018,12,11,05,31,7.30
2018,12,11,05,32,7.30
2018,12,11,05,33,7.30
2018,12,11,05,34,7.30
2018,12,11,05,35,7.30
2018,12,11,05,36,7.30
2018,12,11,05,37,7.30
2018,12,11,10,09,7.40
2018,12,11,10,10,7.40
2018,12,11,10,11,7.40
2018,12,11,10,12,7.50
2018,12,11,10,13,7.50
2018,12,11,10,14,7.50
2018,12,11,10,15,7.50
2018,12,11,10,16,7.50
2018,12,11,10,17,7.50
2018,12,11,10,18,7.50
2018,12,11,10,19,7.50
2018,12,11,10,20,7.50
2018,12,11,10,21,7.50
2018,12,11,10,22,7.40
2018,12,11,10,23,7.50
2018,12,11,10,24,7.50
2018,12,11,10,25,7.50
2018,12,11,10,26,7.50
2018,12,11,10,27,7.50
2018,12,11,10,28,7.50
2018,12,11,10,29,7.50
2018,12,11,10,30,7.50
2018,12,11,10,31,7.60
2018,12,11,10,32,7.60
2018,12,11,10,33,7.60
2018,12,11,10,34,7.60
2018,12,11,10,35,7.60
2018,12,11,10,36,7.50
2018,12,11,10,37,7.50
2018,12,11,10,38,7.50
2018,12,11,10,39,7.50
2018,12,11,10,40,7.50
2018,12,11,10,41,7.50
2018,12,11,10,42,7.50
2018,12,11,10,43,7.50
2018,12,11,10,44,7.60
2018,12,11,10,45,7.60
2018,12,11,10,46,7.60
2018,12,11,10,47,7.60
2018,12,11,10,48,7.60
2018,12,11,10,49,7.60
2018,12,11,10,50,7.60
2018,12,11,10,51,7.60
2018,12,11,10,52,7.60
2018,12,11,10,53,7.60
2018,12,11,10,54,7.60
2018,12,11,10,55,7.70
2018,12,11,10,56,7.70
2018,12,11,10,57,7.70
2018,12,11,10,58,7.70
2018,12,11,10,59,7.70
2018,12,11,11,00,7.70
2018,12,11,11,01,7.70
2018,12,11,11,02,7.70
2018,12,11,11,03,7.70
2018,12,11,11,04,7.70
2018,12,11,11,05,7.70
2018,12,11,11,06,7.70
2018,12,11,11,07,7.70
2018,12,11,11,08,7.70
2018,12,11,11,09,7.70
2018,12,11,11,10,7.70
2018,12,11,11,11,7.70
2018,12,11,11,12,7.70
2018,12,11,11,13,7.80
2018,12,11,11,14,7.70
2018,12,11,11,15,7.70
2018,12,11,11,16,7.70
2018,12,11,11,17,7.80
2018,12,11,11,18,7.80
2018,12,11,11,19,7.80
2018,12,11,11,20,7.80
2018,12,11,11,21,7.80
2018,12,11,11,22,7.80
2018,12,11,11,23,7.80
2018,12,11,11,24,7.80
2018,12,11,11,25,7.80
2018,12,11,11,26,7.80
2018,12,11,11,27,7.80
2018,12,11,11,28,7.80
2018,12,11,11,29,7.80
2018,12,11,11,30,7.80
2018,12,11,11,31,7.90
2018,12,11,11,32,7.90
2018,12,11,11,33,7.90
2018,12,11,11,34,7.90
2018,12,11,11,35,7.90
2018,12,11,11,36,7.90
2018,12,11,11,37,7.90
2018,12,11,11,38,7.90
2018,12,11,11,39,7.90
2018,12,11,11,40,7.90
2018,12,11,11,41,7.90
2018,12,11,11,42,7.90
2018,12,11,11,43,7.90
2018,12,11,11,44,7.90
2018,12,11,11,45,7.90
2018,12,11,11,46,7.90
2018,12,11,11,47,8.00
2018,12,11,11,48,8.00
2018,12,11,11,49,8.00
2018,12,11,11,50,8.00
2018,12,11,11,51,8.00
2018,12,11,11,52,8.00
2018,12,11,11,53,8.00
2018,12,11,11,54,8.00
2018,12,11,11,55,8.00
2018,12,11,11,56,8.00
2018,12,11,11,57,8.00
2018,12,11,11,58,8.00
2018,12,11,11,59,8.00
2018,12,11,12,00,8.10
2018,12,11,12,01,8.10
2018,12,11,12,02,8.10
2018,12,11,12,03,8.10
2018,12,11,12,04,8.10
2018,12,11,12,05,8.10
2018,12,11,12,06,8.10
2018,12,11,12,07,8.10
2018,12,11,12,08,8.10
2018,12,11,12,09,8.10
2018,12,11,12,10,8.10
2018,12,11,12,11,8.10
2018,12,11,12,12,8.10
2018,12,11,12,13,8.00
2018,12,11,12,14,8.10
2018,12,11,12,15,8.10
2018,12,11,12,16,8.10
2018,12,11,12,17,8.10
2018,12,11,12,18,8.10
2018,12,11,12,19,8.10
2018,12,11,12,20,8.10
2018,12,11,12,21,8.10
2018,12,11,12,22,8.10
2018,12,11,12,23,8.10
2018,12,11,12,24,8.10
2018,12,11,12,25,8.10
2018,12,11,12,26,8.10
2018,12,11,12,27,8.20
2018,12,11,12,28,8.20
2018,12,11,12,29,8.20
2018,12,11,12,30,8.20
2018,12,11,12,31,8.20
2018,12,11,12,32,8.20
2018,12,11,12,33,8.20
2018,12,11,12,34,8.20
2018,12,11,12,35,8.20
2018,12,11,12,36,8.20
2018,12,11,12,37,8.20
2018,12,11,12,38,8.20
2018,12,11,12,39,8.20
2018,12,11,12,40,8.20
2018,12,11,12,41,8.20
2018,12,11,12,42,8.20
2018,12,11,12,43,8.20
2018,12,11,12,44,8.20
2018,12,11,12,45,8.20
2018,12,11,12,46,8.20
2018,12,11,12,47,8.20
2018,12,11,12,48,8.20
2018,12,11,12,49,8.20
2018,12,11,12,50,8.20
2018,12,11,12,51,8.30
2018,12,11,12,52,8.40
2018,12,11,12,53,8.60
2018,12,11,12,54,8.70
2018,12,11,12,55,8.70
2018,12,11,12,56,8.70
2018,12,11,12,57,8.70
2018,12,11,12,58,8.60
2018,12,11,12,59,8.60
2018,12,11,13,00,8.60
2018,12,11,13,01,8.60
2018,12,11,13,02,8.60
2018,12,11,13,03,8.70
2018,12,11,13,04,8.70
2018,12,11,13,05,8.70
2018,12,11,13,06,8.70
2018,12,11,13,07,8.70
2018,12,11,13,08,8.70
2018,12,11,13,09,8.70
2018,12,11,13,10,8.80
2018,12,11,13,11,8.80
2018,12,11,13,12,8.80
2018,12,11,13,13,8.80
2018,12,11,13,14,8.80
2018,12,11,13,15,8.80
2018,12,11,13,16,8.90
2018,12,11,13,17,8.90
2018,12,11,13,18,8.90
2018,12,11,13,19,8.90
2018,12,11,13,20,8.90
2018,12,11,13,21,9.00
2018,12,11,13,22,9.00
2018,12,11,13,23,9.10
2018,12,11,13,24,9.10
2018,12,11,13,25,9.10
2018,12,11,13,26,9.10
2018,12,11,13,27,9.10
2018,12,11,13,28,9.10
2018,12,11,13,29,9.10
2018,12,11,13,30,9.20
2018,12,11,13,31,9.20
2018,12,11,13,32,9.20
2018,12,11,13,33,9.20
2018,12,11,13,34,9.20
2018,12,11,13,35,9.30
2018,12,11,13,36,9.40
2018,12,11,13,37,9.40
2018,12,11,13,38,9.40
2018,12,11,13,39,9.50
2018,12,11,13,40,9.50
2018,12,11,13,41,9.50
2018,12,11,13,42,9.60
2018,12,11,13,43,9.60
2018,12,11,13,44,9.60
2018,12,11,13,45,9.60
2018,12,11,13,46,9.60
2018,12,11,13,47,9.60
2018,12,11,13,48,9.70
2018,12,11,13,49,9.70
2018,12,11,13,50,9.70
2018,12,11,13,51,9.70
2018,12,11,13,52,9.70
2018,12,11,13,53,9.70
2018,12,11,13,54,9.70
2018,12,11,13,55,9.70
2018,12,11,13,56,9.70
2018,12,11,13,57,9.70
2018,12,11,13,58,9.70
2018,12,11,13,59,9.70
2018,12,11,14,00,9.80
2018,12,11,14,01,9.80
2018,12,11,14,02,9.80
2018,12,11,14,03,9.80
2018,12,11,14,04,9.80
2018,12,11,14,05,9.80
2018,12,11,14,06,9.80
2018,12,11,14,07,9.80
2018,12,11,14,08,9.80
2018,12,11,14,09,9.80
2018,12,11,14,10,9.80
2018,12,11,14,11,9.80
2018,12,11,14,12,9.80
2018,12,11,14,13,9.90
2018,12,11,14,14,9.90
2018,12,11,14,15,9.90
2018,12,11,14,16,9.90
2018,12,11,14,17,9.90
2018,12,11,14,18,9.90
2018,12,11,14,19,9.90
2018,12,11,14,20,9.90
2018,12,11,14,21,9.90
2018,12,11,14,22,9.90
2018,12,11,14,23,9.90
2018,12,11,14,24,9.90
2018,12,11,14,25,9.90
2018,12,11,14,26,9.90
2018,12,11,14,27,9.90
2018,12,11,14,28,9.80
2018,12,11,14,29,9.80
2018,12,11,14,30,9.80
2018,12,11,14,31,9.80
2018,12,11,14,32,9.80
2018,12,11,14,33,9.80
2018,12,11,14,34,9.80
2018,12,11,14,35,9.70
2018,12,11,14,36,9.70
2018,12,11,14,37,9.70
2018,12,11,14,38,9.60
2018,12,11,14,39,9.60
2018,12,11,14,40,9.60
2018,12,11,14,41,9.50
2018,12,11,14,42,9.50
2018,12,11,14,43,9.40
2018,12,11,14,44,9.40
2018,12,11,14,45,9.30
2018,12,11,14,46,9.30
2018,12,11,14,47,9.20
2018,12,11,14,48,9.20
2018,12,11,14,49,9.20
2018,12,11,14,50,9.10
2018,12,11,14,51,9.10
2018,12,11,14,52,9.10
2018,12,11,14,53,9.10
2018,12,11,14,54,9.10
2018,12,11,14,55,9.00
2018,12,11,14,56,9.00
2018,12,11,14,57,9.00
2018,12,11,14,58,8.90
2018,12,11,14,59,8.90
2018,12,11,15,00,8.90
2018,12,11,15,01,8.90
2018,12,11,15,02,8.90
2018,12,11,15,03,8.90
2018,12,11,15,04,8.90
2018,12,11,15,05,8.90
2018,12,11,15,06,8.90
2018,12,11,15,07,8.90
2018,12,11,15,08,8.90
2018,12,11,15,09,8.80
2018,12,11,15,10,8.80
2018,12,11,15,11,8.80
2018,12,11,15,12,8.80
2018,12,11,15,13,8.80
2018,12,11,15,14,8.80
2018,12,11,15,15,8.80
2018,12,11,15,16,8.80
2018,12,11,15,17,8.80
2018,12,11,15,18,8.80
2018,12,11,15,19,8.80
2018,12,11,15,20,8.80
2018,12,11,15,21,8.80
2018,12,11,15,22,8.80
2018,12,11,15,23,8.80
2018,12,11,15,24,8.80
2018,12,11,15,25,8.80
2018,12,11,15,26,8.80
2018,12,11,15,27,8.70
2018,12,11,15,28,8.70
2018,12,11,15,29,8.70
2018,12,11,15,30,8.80
2018,12,11,15,31,8.80
2018,12,11,15,32,8.80
2018,12,11,15,33,8.80
2018,12,11,15,34,8.80
2018,12,11,15,35,8.80
2018,12,11,15,36,8.80
2018,12,11,15,37,8.80
2018,12,11,15,38,8.80
2018,12,11,15,39,8.80
2018,12,11,15,40,8.80
2018,12,11,15,41,8.80
2018,12,11,15,42,8.80
2018,12,11,15,43,8.80
2018,12,11,15,44,8.70
2018,12,11,15,45,8.70
2018,12,11,15,46,8.70
2018,12,11,15,47,8.70
2018,12,11,15,48,8.70
2018,12,11,15,49,8.70
2018,12,11,15,50,8.70
2018,12,11,15,51,8.70
2018,12,11,15,52,8.70
2018,12,11,15,53,8.70
2018,12,11,15,54,8.70
2018,12,11,15,55,8.70
2018,12,11,15,56,8.70
2018,12,11,15,57,8.70
2018,12,11,15,58,8.70
2018,12,11,15,59,8.60
2018,12,11,16,00,8.60
2018,12,11,16,01,8.60
2018,12,11,16,02,8.60
2018,12,11,16,03,8.60
2018,12,11,16,04,8.60
2018,12,11,16,05,8.60
2018,12,11,16,06,8.60
2018,12,11,16,07,8.60
2018,12,11,16,08,8.60
2018,12,11,16,09,8.60
2018,12,11,16,10,8.60
2018,12,11,16,11,8.50
2018,12,11,16,12,8.50
2018,12,11,16,13,8.50
2018,12,11,16,14,8.50
2018,12,11,16,15,8.50
2018,12,11,16,16,8.50
2018,12,11,16,17,8.50
2018,12,11,16,18,8.50
2018,12,11,16,19,8.40
2018,12,11,16,20,8.40
2018,12,11,16,21,8.40
2018,12,11,16,22,8.40
2018,12,11,16,23,8.40
2018,12,11,16,24,8.40
2018,12,11,16,25,8.40
2018,12,11,16,26,8.40
2018,12,11,16,27,8.50
2018,12,11,16,28,8.50
2018,12,11,16,29,8.50
2018,12,11,16,30,8.50
2018,12,11,16,31,8.50
2018,12,11,16,32,8.50
2018,12,11,16,33,8.50
2018,12,11,16,34,8.60
2018,12,11,16,35,8.60
2018,12,11,16,36,8.60
2018,12,11,16,37,8.60
2018,12,11,16,38,8.60
2018,12,11,16,39,8.60
2018,12,11,16,40,8.60
2018,12,11,16,41,8.60
2018,12,11,16,42,8.60
2018,12,11,16,43,8.60
2018,12,11,16,44,8.60
2018,12,11,16,45,8.60
2018,12,11,16,46,8.60
2018,12,11,16,47,8.60
2018,12,11,16,48,8.60
2018,12,11,16,49,8.70
2018,12,11,16,50,8.70
2018,12,11,16,51,8.70
2018,12,11,16,52,8.80
2018,12,11,16,53,8.80
2018,12,11,16,54,8.80
2018,12,11,16,55,8.80
2018,12,11,16,56,8.80
2018,12,11,16,57,8.80
2018,12,11,16,58,8.80
2018,12,11,16,59,8.80
2018,12,11,17,00,8.70
2018,12,11,17,01,8.70
2018,12,11,17,02,8.70
2018,12,11,17,03,8.70
2018,12,11,17,04,8.60
2018,12,11,17,05,8.60
2018,12,11,17,06,8.60
2018,12,11,17,07,8.60
2018,12,11,17,08,8.50
2018,12,11,17,09,8.50
2018,12,11,17,10,8.50
2018,12,11,17,11,8.40
2018,12,11,17,12,8.40
2018,12,11,17,13,8.40
2018,12,11,17,14,8.30
2018,12,11,17,15,8.30
2018,12,11,17,16,8.30
2018,12,11,17,17,8.30
2018,12,11,17,18,8.20
2018,12,11,17,19,8.20
2018,12,11,17,20,8.20
2018,12,11,17,21,8.20
2018,12,11,17,22,8.20
2018,12,11,17,23,8.10
2018,12,11,17,24,8.20
2018,12,11,17,25,8.20
2018,12,11,17,26,8.20
2018,12,11,17,27,8.20
2018,12,11,17,28,8.10
2018,12,11,17,29,8.10
2018,12,11,17,30,8.10
2018,12,11,17,31,8.10
2018,12,11,17,32,8.10
2018,12,11,17,33,8.00
2018,12,11,17,34,8.00
2018,12,11,17,35,8.00
2018,12,11,17,36,7.90
2018,12,11,17,37,7.90
2018,12,11,17,38,7.90
2018,12,11,17,39,7.90
2018,12,11,17,40,7.90
2018,12,11,17,41,7.90
2018,12,11,17,42,7.80
2018,12,11,17,43,7.80
2018,12,11,17,44,7.80
2018,12,11,17,45,7.80
2018,12,11,17,46,7.80
2018,12,11,17,47,7.70
2018,12,11,17,48,7.70
2018,12,11,17,49,7.70
2018,12,11,17,50,7.70
2018,12,11,17,51,7.70
2018,12,11,17,52,7.60
2018,12,11,17,53,7.60
2018,12,11,17,54,7.60
2018,12,11,17,55,7.60
2018,12,11,17,56,7.60
2018,12,11,17,57,7.60
2018,12,11,17,58,7.60
2018,12,11,17,59,7.60
2018,12,11,18,00,7.60
2018,12,11,18,01,7.60
2018,12,11,18,02,7.60
2018,12,11,18,03,7.60
2018,12,11,18,04,7.60
2018,12,11,18,05,7.60
2018,12,11,18,06,7.60
2018,12,11,18,07,7.60
2018,12,11,18,08,7.60
2018,12,11,18,09,7.50
2018,12,11,18,10,7.50
2018,12,11,18,11,7.40
2018,12,11,18,12,7.40
2018,12,11,18,13,7.40
2018,12,11,18,14,7.40
2018,12,11,18,15,7.40
2018,12,11,18,16,7.40
2018,12,11,18,17,7.40
2018,12,11,18,18,7.40
2018,12,11,18,19,7.30
2018,12,11,18,20,7.30
2018,12,11,18,21,7.40
2018,12,11,18,22,7.40
2018,12,11,18,23,7.40
2018,12,11,18,24,7.40
2018,12,11,18,25,7.40
2018,12,11,18,26,7.40
2018,12,11,18,27,7.40
2018,12,11,18,28,7.40
2018,12,11,18,29,7.40
2018,12,11,18,30,7.40
2018,12,11,18,31,7.40
2018,12,11,18,32,7.40
2018,12,11,18,33,7.40
2018,12,11,18,34,7.40
2018,12,11,18,35,7.40
2018,12,11,18,36,7.40
2018,12,11,18,37,7.40
2018,12,11,18,38,7.40
2018,12,11,18,39,7.40
2018,12,11,18,40,7.40
2018,12,11,18,41,7.40
2018,12,11,18,42,7.40
2018,12,11,18,43,7.40
2018,12,11,18,44,7.40
2018,12,11,18,45,7.40
2018,12,11,18,46,7.40
2018,12,11,18,47,7.40
2018,12,11,18,48,7.30
2018,12,11,18,49,7.30
2018,12,11,18,50,7.30
2018,12,11,18,51,7.30
2018,12,11,18,52,7.30
2018,12,11,18,53,7.40
2018,12,11,18,54,7.40
2018,12,11,18,55,7.40
2018,12,11,18,56,7.40
2018,12,11,18,57,7.40
2018,12,11,18,58,7.30
2018,12,11,18,59,7.30
2018,12,11,19,00,7.30
2018,12,11,19,01,7.30
2018,12,11,19,02,7.20
2018,12,11,19,03,7.20
2018,12,11,19,04,7.10
2018,12,11,19,05,7.10
2018,12,11,19,06,7.10
2018,12,11,19,07,7.10
2018,12,11,19,08,7.00
2018,12,11,19,09,7.00
2018,12,11,19,10,7.00
2018,12,11,19,11,7.00
2018,12,11,19,12,7.00
2018,12,11,19,13,7.10
2018,12,11,19,14,7.10
2018,12,11,19,15,7.10
2018,12,11,19,16,7.10
2018,12,11,19,17,7.10
2018,12,11,19,18,7.10
2018,12,11,19,19,7.10
2018,12,11,19,20,7.10
2018,12,11,19,21,7.10
2018,12,11,19,22,7.20
2018,12,11,19,23,7.20
2018,12,11,19,24,7.30
2018,12,11,19,25,7.30
2018,12,11,19,26,7.30
2018,12,11,19,27,7.30
2018,12,11,19,28,7.30
2018,12,11,19,29,7.30
2018,12,11,19,30,7.20
2018,12,11,19,31,7.20
2018,12,11,19,32,7.30
2018,12,11,19,33,7.30
2018,12,11,19,34,7.30
2018,12,11,19,35,7.20
2018,12,11,19,36,7.20
2018,12,11,19,37,7.20
2018,12,11,19,38,7.20
2018,12,11,19,39,7.20
2018,12,11,19,40,7.20
2018,12,11,19,41,7.10
2018,12,11,19,42,7.10
2018,12,11,19,43,7.10
2018,12,11,19,44,7.10
2018,12,11,19,45,7.10
2018,12,11,19,46,7.10
2018,12,11,19,47,7.10
2018,12,11,19,48,7.10
2018,12,11,19,49,7.10
2018,12,11,19,50,7.10
2018,12,11,19,51,7.10
2018,12,11,19,52,7.10
2018,12,11,19,53,7.10
2018,12,11,19,54,7.00
2018,12,11,19,55,7.00
2018,12,11,19,56,7.00
2018,12,11,19,57,7.00
2018,12,11,19,58,6.90
2018,12,11,19,59,6.90
2018,12,11,20,00,6.90
2018,12,11,20,01,6.90
2018,12,11,20,02,6.80
2018,12,11,20,03,6.80
2018,12,11,20,04,6.80
2018,12,11,20,05,6.80
2018,12,11,20,06,6.80
2018,12,11,20,07,6.90
2018,12,11,20,08,6.90
2018,12,11,20,09,6.90
2018,12,11,20,10,6.90
2018,12,11,20,11,6.90
2018,12,11,20,12,6.90
2018,12,11,20,13,6.80
2018,12,11,20,14,6.80
2018,12,11,20,15,6.80
2018,12,11,20,16,6.80
2018,12,11,20,17,6.90
2018,12,11,20,18,6.90
2018,12,11,20,19,6.90
2018,12,11,20,20,6.90
2018,12,11,20,21,7.00
2018,12,11,20,22,7.00
2018,12,11,20,23,7.10
2018,12,11,20,24,7.10
2018,12,11,20,25,7.10
2018,12,11,20,26,7.10
2018,12,11,20,27,7.10
2018,12,11,20,28,7.10
2018,12,11,20,29,7.20
2018,12,11,20,30,7.20
2018,12,11,20,31,7.20
2018,12,11,20,32,7.20
2018,12,11,20,33,7.20
2018,12,11,20,34,7.20
2018,12,11,20,35,7.20
2018,12,11,20,36,7.20
2018,12,11,20,37,7.20
2018,12,11,20,38,7.20
2018,12,11,20,39,7.20
2018,12,11,20,40,7.20
2018,12,11,20,41,7.20
2018,12,11,20,42,7.20
2018,12,11,20,43,7.20
2018,12,11,20,44,7.20
2018,12,11,20,45,7.20
2018,12,11,20,46,7.20
2018,12,11,20,47,7.20
2018,12,11,20,48,7.10
2018,12,11,20,49,7.10
2018,12,11,20,50,7.10
2018,12,11,20,51,7.10
2018,12,11,20,52,7.10
2018,12,11,20,53,7.10
2018,12,11,20,54,7.10
2018,12,11,20,55,7.10
2018,12,11,20,56,7.10
2018,12,11,20,57,7.10
2018,12,11,20,58,7.10
2018,12,11,20,59,7.10
2018,12,11,21,00,7.10
2018,12,11,21,01,7.10
2018,12,11,21,02,7.10
2018,12,11,21,03,7.10
2018,12,11,21,04,7.20
2018,12,11,21,05,7.20
2018,12,11,21,06,7.20
2018,12,11,21,07,7.20
2018,12,11,21,08,7.20
2018,12,11,21,09,7.20
2018,12,11,21,10,7.20
2018,12,11,21,11,7.20
2018,12,11,21,12,7.20
2018,12,11,21,13,7.20
2018,12,11,21,14,7.20
2018,12,11,21,15,7.10
2018,12,11,21,16,7.10
2018,12,11,21,17,7.10
2018,12,11,21,18,7.10
2018,12,11,21,19,7.10
2018,12,11,21,20,7.00
2018,12,11,21,21,7.00
2018,12,11,21,22,7.00
2018,12,11,21,23,6.90
2018,12,11,21,24,6.90
2018,12,11,21,25,6.90
2018,12,11,21,26,6.90
2018,12,11,21,27,6.90
2018,12,11,21,28,6.90
2018,12,11,21,29,6.80
2018,12,11,21,30,6.80
2018,12,11,21,31,6.80
2018,12,11,21,32,6.90
2018,12,11,21,33,6.90
2018,12,11,21,34,6.90
2018,12,11,21,35,6.90
2018,12,11,21,36,6.90
2018,12,11,21,37,6.90
2018,12,11,21,38,6.90
2018,12,11,21,39,6.90
2018,12,11,21,40,6.90
2018,12,11,21,41,6.90
2018,12,11,21,42,6.80
2018,12,11,21,43,6.80
2018,12,11,21,44,6.80
2018,12,11,21,45,6.80
2018,12,11,21,46,6.80
2018,12,11,21,47,6.80
2018,12,11,21,48,6.80
2018,12,11,21,49,6.80
2018,12,11,21,50,6.80
2018,12,11,21,51,6.80
2018,12,11,21,52,6.80
2018,12,11,21,53,6.80
2018,12,11,21,54,6.80
2018,12,11,21,55,6.80
2018,12,11,21,56,6.80
2018,12,11,21,57,6.80
2018,12,11,21,58,6.80
2018,12,11,21,59,6.80
2018,12,11,22,00,6.90
2018,12,11,22,01,6.90
2018,12,11,22,02,6.90
2018,12,11,22,03,6.90
2018,12,11,22,04,6.90
2018,12,11,22,05,6.90
2018,12,11,22,06,6.90
2018,12,11,22,07,6.90
2018,12,11,22,08,7.00
2018,12,11,22,09,7.00
2018,12,11,22,10,6.90
2018,12,11,22,11,6.90
2018,12,11,22,12,6.90
2018,12,11,22,13,6.90
2018,12,11,22,14,6.90
2018,12,11,22,15,6.90
2018,12,11,22,16,6.90
2018,12,11,22,17,6.90
2018,12,11,22,18,6.90
2018,12,11,22,19,6.90
2018,12,11,22,20,6.90
2018,12,11,22,21,6.90
2018,12,11,22,22,6.80
2018,12,11,22,23,6.80
2018,12,11,22,24,6.80
2018,12,11,22,25,6.80
2018,12,11,22,26,6.80
2018,12,11,22,27,6.80
2018,12,11,22,28,6.80
2018,12,11,22,29,6.80
2018,12,11,22,30,6.80
2018,12,11,22,31,6.80
2018,12,11,22,32,6.80
2018,12,11,22,33,6.80
2018,12,11,22,34,6.80
2018,12,11,22,35,6.80
2018,12,11,22,36,6.80
2018,12,11,22,37,6.80